EW7556 Weather Reports


time (UTC)temp
C
wind
direction
speed
KPH
gust
KPH
rain 1hr
cm
rain 24hr
cm
rain mn
cm
humidity
%
barometer
mb
20260506004532 14 271 6.4 22.5 0.00 0.00 0.00 79 1015.3
20260506003033 13 200 4.8 19.3 0.00 0.00 0.00 81 1015.3
20260506001542 13 196 8.0 20.9 0.00 0.00 0.00 81 1015.3
20260506000105 13 186 11.3 24.1 0.00 0.00 0.00 80 1015.5
20260505234537 14 262 4.8 22.5 0.00 0.00 0.00 81 1015.7
20260505233027 14 215 8.0 19.3 0.00 0.00 0.00 80 1015.8
20260505231529 14 157 6.4 16.1 0.00 0.00 0.00 80 1015.9
20260505230037 14 192 8.0 16.1 0.00 0.00 0.00 79 1016.0
20260505224502 15 212 8.0 16.1 0.00 0.00 0.00 79 1016.1
20260505223005 15 176 8.0 14.5 0.00 0.00 0.00 77 1016.1
20260505221521 15 224 4.8 11.3 0.00 0.00 0.00 80 1016.3
20260505220003 15 226 3.2 9.7 0.00 0.00 0.00 81 1016.4
20260505214509 15 229 4.8 12.9 0.00 0.00 0.00 81 1016.4
20260505213008 14 191 4.8 12.9 0.00 0.00 0.00 83 1016.5
20260505211521 14 198 8.0 12.9 0.00 0.00 0.00 80 1016.5
20260505210118 15 197 4.8 9.7 0.00 0.00 0.00 83 1016.5
20260505204509 14 196 3.2 9.7 0.00 0.00 0.00 84 1016.6
20260505203014 14 202 0.0 6.4 0.00 0.00 0.00 84 1016.6
20260505201533 13 179 1.6 6.4 0.00 0.00 0.00 84 1016.7
20260505200037 13 214 1.6 6.4 0.00 0.00 0.00 83 1016.7
20260505194531 13 252 0.0 8.0 0.00 0.00 0.00 85 1016.6
20260505193027 13 244 3.2 8.0 0.00 0.00 0.00 84 1016.6
20260505191530 12 220 0.0 4.8 0.00 0.00 0.00 87 1016.6
20260505190038 12 200 3.2 4.8 0.00 0.00 0.00 88 1016.6
20260505184524 12 193 0.0 6.4 0.00 0.00 0.00 88 1016.6
20260505183022 12 222 0.0 3.2 0.00 0.00 0.00 89 1016.6
20260505181525 12 238 3.2 6.4 0.00 0.00 0.00 89 1016.6
20260505180007 12 261 0.0 4.8 0.00 0.00 0.00 90 1016.5
20260505174511 11 197 0.0 3.2 0.00 0.00 0.00 91 1016.3
20260505173014 11 238 0.0 3.2 0.00 0.00 0.00 91 1016.2
20260505171517 11 264 0.0 3.2 0.00 0.00 0.00 91 1016.2
20260505170011 11 240 0.0 3.2 0.00 0.00 0.00 92 1016.2
20260505164515 11 237 1.6 6.4 0.00 0.00 0.00 92 1016.2
20260505163020 11 245 0.0 6.4 0.00 0.00 0.00 92 1016.2
20260505161532 11 227 0.0 4.8 0.00 0.00 0.00 92 1016.1
20260505153031 10 217 0.0 6.4 0.00 0.00 0.00 92 1015.9
20260505151535 10 210 0.0 3.2 0.00 0.00 0.00 92 1015.7
20260505124542 9 181 0.0 0.0 0.00 0.00 0.00 91 1014.2
20260505123044 9 181 0.0 0.0 0.00 0.00 0.00 91 1014.2
20260505121604 9 181 0.0 0.0 0.00 0.00 0.00 91 1014.0
20260505120037 8 181 0.0 0.0 0.00 0.00 0.00 91 1013.9
20260505114523 8 181 0.0 0.0 0.00 0.00 0.00 91 1013.7
20260505113029 8 181 0.0 0.0 0.00 0.00 0.00 91 1013.6
20260505111537 7 181 0.0 0.0 0.00 0.00 0.00 91 1013.4
20260505101540 6 207 0.0 0.0 0.00 0.00 0.00 92 1012.9
20260505100049 6 207 0.0 0.0 0.00 0.00 0.00 92 1012.9
20260505094522 6 207 0.0 0.0 0.00 0.00 0.00 92 1012.9
20260505093029 6 207 0.0 0.0 0.00 0.00 0.00 92 1012.8
20260505091535 6 207 0.0 0.0 0.00 0.00 0.00 92 1012.7
20260505090014 7 207 0.0 0.0 0.00 0.00 0.00 92 1012.6
20260505084522 7 207 0.0 0.0 0.00 0.00 0.00 92 1012.6
20260505083033 7 207 0.0 0.0 0.00 0.00 0.00 91 1012.5
20260505081529 7 207 0.0 0.0 0.00 0.00 0.00 91 1012.4
20260505080008 8 207 0.0 0.0 0.00 0.00 0.00 91 1012.3
20260505074510 8 207 0.0 0.0 0.00 0.00 0.00 91 1012.2
20260505073012 9 207 0.0 1.6 0.00 0.00 0.00 91 1012.0
20260505071522 10 207 0.0 6.4 0.00 0.00 0.00 91 1011.9
20260505070121 10 227 1.6 9.7 0.00 0.00 0.00 91 1011.7
20260505064503 10 213 1.6 9.7 0.00 0.00 0.00 91 1011.5
20260505063028 10 214 3.2 9.7 0.00 0.00 0.00 90 1011.4
20260505061524 10 197 1.6 14.5 0.00 0.00 0.00 90 1011.3
20260505060005 10 212 1.6 9.7 0.00 0.00 0.00 90 1011.1
20260505054508 10 244 1.6 9.7 0.00 0.00 0.00 90 1010.9
20260505053011 10 207 8.0 16.1 0.00 0.00 0.00 90 1010.8
20260505051531 10 198 6.4 19.3 0.00 0.00 0.00 90 1010.7
20260505041512 11 231 4.8 19.3 0.00 0.00 0.00 88 1010.1
20260505040120 11 271 9.7 22.5 0.00 0.00 0.00 87 1010.1
20260505034603 11 224 8.0 12.9 0.00 0.00 0.00 85 1010.0
20260505033103 12 265 8.0 19.3 0.00 0.00 0.00 84 1009.8
20260505031511 12 220 8.0 22.5 0.00 0.00 0.00 82 1009.7
20260505030111 13 220 6.4 20.9 0.00 0.00 0.00 80 1009.6
20260505024617 13 217 4.8 14.5 0.00 0.00 0.00 77 1009.5
20260505023118 14 237 8.0 17.7 0.00 0.00 0.00 75 1009.4
20260505021503 16 206 8.0 16.1 0.00 0.00 0.00 69 1009.5
20260505020117 16 213 6.4 14.5 0.00 0.00 0.00 69 1009.6
20260505014600 16 231 4.8 17.7 0.00 0.00 0.00 69 1009.8
20260505013103 16 205 8.0 20.9 0.00 0.00 0.00 69 1009.9
20260505011503 17 191 9.7 22.5 0.00 0.00 0.00 65 1010.0
20260505010114 17 193 8.0 20.9 0.00 0.00 0.00 64 1010.0